[[{"header":{"parameterUnit":"m.s-1","parameterCategory":1,"la1":30.2991,"la2":30.254,"lo1":-89.0895,"lo2":-89.0444,"dy":0.0017,"dx":0.0017,"nx":28,"ny":28,"refTime":"2024-04-15T09:00:00:Z","depth":0,"parameterNumber":2,"parameterNumberName":"U-component_of_WINDS"},"data":[0,0,0,0,0,0,0,0,0,0,0,0,0,0,0,0,0,0,0,0,0,0,0,0,0,0,0,0,0,0,0,0,0,0,0,0,0,0,0,0,0,0,0,0,0,0,0,0,0,0,0,0,0,0,0,0,0,0,-3.1933,-3.1933,0,-3.1933,-3.1933,-3.1933,-3.1887,-3.1885,-3.1884,-3.1883,-3.1883,-3.1884,-3.1885,0,0,0,0,0,0,0,0,0,0,0,0,0,-3.1895,-3.1896,-3.1933,-3.1933,-3.1933,-3.1933,-3.1933,-3.1933,-3.1887,-3.1885,-3.1884,-3.1883,-3.1882,-3.1884,-3.1885,0,0,0,0,0,0,0,0,0,0,0,0,0,-3.1905,-3.1896,-3.1933,-3.191,-3.1908,-3.1933,-3.1933,-3.1933,-3.1887,-3.1885,-3.1883,-3.1882,-3.1882,-3.1884,-3.1885,-3.1932,0,0,-3.189,-3.1891,0,0,0,0,0,0,0,0,-3.1904,-3.1906,-3.1913,-3.1912,-3.1909,-3.1908,-3.1919,-3.1932,-3.1888,-3.1895,-3.1883,-3.1881,-3.1893,-3.1893,-3.1897,-3.1932,-3.1932,-3.1891,-3.1892,-3.1892,-3.1893,0,0,0,0,0,0,0,-3.1904,-3.1906,-3.1933,-3.1914,-3.1911,-3.19,-3.1899,-3.1921,-3.1904,-3.1894,-3.1891,-3.1892,-3.1891,-3.1896,-3.1897,-3.1932,-3.189,-3.1892,-3.1893,-3.1894,-3.2004,-3.2006,0,0,0,0,0,0,-3.1906,-3.1906,-3.1933,-3.1933,-3.1902,-3.1902,-3.1902,-3.191,-3.1904,-3.1901,-3.1893,-3.1889,-3.1894,-3.1895,-3.1897,-3.195,-3.1892,-3.1894,-3.1895,-3.2002,-3.2004,-3.2007,0,0,0,0,0,0,-3.1905,-3.1909,-3.1933,-3.1918,-3.192,-3.1905,-3.1915,-3.1911,-3.1915,-3.1903,-3.1899,-3.1901,-3.1892,-3.1894,-3.1923,-3.1949,-3.1895,-3.1896,-3.2,-3.2003,-3.2005,-3.2057,0,0,0,0,0,0,-3.1904,-3.1909,-3.1926,-3.1919,-3.1921,-3.1959,-3.1916,-3.1912,-3.1918,-3.1914,-3.1909,-3.1906,-3.1891,-3.1921,-3.1925,-3.195,-3.1897,-3.1997,-3.2001,-3.2005,-3.2053,-3.2061,-3.2068,0,0,0,0,0,-3.1903,-3.1941,-3.1927,-3.1931,-3.1943,-3.1961,-3.1962,-3.1944,-3.1921,-3.1938,-3.193,-3.1907,-3.1946,-3.1924,-3.1928,-3.1955,-3.1996,-3.2,-3.2004,-3.2049,-3.2059,-3.2068,0,0,0,0,0,0,-3.1951,-3.1939,-3.1924,-3.196,-3.1962,-3.1953,-3.1974,-3.1955,-3.1963,-3.1958,-3.1935,-3.1935,-3.1967,-3.1964,-3.194,-3.1999,-3.1967,-3.1972,-3.1999,-3.2009,-3.2017,-3.2016,-3.1899,0,0,0,0,0,-3.1966,-3.1981,-3.197,-3.2003,-3.2005,-3.199,-3.1997,-3.1983,-3.1983,-3.1984,-3.1978,-3.1979,-3.1992,-3.2001,-3.2012,-3.2053,-3.2051,-3.2073,-3.2081,-3.2087,-3.2092,-3.2113,-3.2122,-3.2021,-3.2021,-3.2021,0,0,-3.1996,-3.1992,-3.2003,-3.2013,-3.2012,-3.2029,-3.199,-3.201,-3.2022,-3.1987,-3.2013,-3.2009,-3.201,-3.2045,-3.206,-3.2043,-3.212,-3.2093,-3.2098,-3.2099,-3.2118,-3.2128,-3.2136,-3.2024,-3.2023,-3.2023,0,0,-3.2059,-3.2058,-3.2085,-3.2086,-3.2086,-3.2075,-3.2082,-3.2076,-3.2072,-3.2099,-3.2073,-3.2087,-3.211,-3.2111,-3.2115,-3.218,-3.2159,-3.2185,-3.2225,-3.2245,-3.2253,-3.226,-3.2282,-3.2291,-3.219,-3.219,-3.219,0,-3.2097,-3.2121,-3.2101,-3.2122,-3.2127,-3.2097,-3.2124,-3.2126,-3.213,-3.2134,-3.2116,-3.2143,-3.2142,-3.2176,-3.2192,-3.2197,-3.2203,-3.2184,-3.2254,-3.226,-3.2267,-3.2288,-3.2296,-3.2193,-3.2192,-3.2192,-3.2192,0,-3.2167,-3.2184,-3.2206,-3.221,-3.2218,-3.2242,-3.2226,-3.2237,-3.2223,-3.2214,-3.2242,-3.2239,-3.2249,-3.2256,-3.2243,-3.2289,-3.2279,-3.2258,-3.2224,-3.228,-3.2299,-3.2307,-3.2197,-3.2196,-3.2195,-3.2194,0,0,-3.2258,-3.2252,-3.226,-3.2262,-3.226,-3.2273,-3.2296,-3.2306,-3.2315,-3.2319,-3.2337,-3.2358,-3.2338,-3.2343,-3.2329,-3.2348,-3.2399,-3.2324,-3.2324,-3.2337,-3.2449,-3.2463,-3.2473,-3.2386,-3.2387,-3.2388,-3.2448,0,-3.2318,-3.2357,-3.234,-3.238,-3.2396,-3.2368,-3.2388,-3.2389,-3.2383,-3.2395,-3.2388,-3.2403,-3.2376,-3.2379,-3.2396,-3.2389,-3.242,-3.2384,-3.2401,-3.2402,-3.24,-3.2483,-3.2499,-3.2555,-3.2456,-3.2457,-3.2458,0,-3.2393,-3.24,-3.2442,-3.2438,-3.2444,-3.2462,-3.2469,-3.2482,-3.2483,-3.2477,-3.2483,-3.2465,-3.2487,-3.2456,-3.2486,-3.2462,-3.2469,-3.2467,-3.2468,-3.2467,-3.2432,-3.2483,-3.2573,-3.2581,-3.247,-3.2469,-3.2468,0,-3.2454,-3.2475,-3.2502,-3.2504,-3.25,-3.2514,-3.2513,-3.2512,-3.2519,-3.2526,-3.253,-3.254,-3.2545,-3.2554,-3.2539,-3.2518,-3.2572,-3.2539,-3.2566,-3.2567,-3.2577,-3.2576,-3.2668,-3.2585,-3.2585,-3.2584,-3.2584,0,-3.2522,-3.2548,-3.2529,-3.2545,-3.2574,-3.2556,-3.2585,-3.2581,-3.2581,-3.2596,-3.2574,-3.2589,-3.257,-3.2583,-3.2572,-3.2599,-3.2602,-3.2597,-3.2593,-3.2598,-3.2598,-3.26,-3.2595,-3.2587,-3.2586,-3.2586,-3.2585,0,-3.2594,-3.2582,-3.261,-3.2604,-3.2604,-3.2625,-3.262,-3.2635,-3.2628,-3.2648,-3.2651,-3.264,-3.2654,-3.2641,-3.2655,-3.2648,-3.2683,-3.2675,-3.2682,-3.2679,-3.2707,-3.2704,-3.2801,-3.2812,-3.2724,-3.2725,-3.2725,0,-3.2637,-3.2657,-3.2653,-3.2662,-3.2663,-3.2677,-3.2684,-3.2667,-3.2676,-3.2679,-3.2694,-3.2706,-3.2715,-3.274,-3.2733,-3.2743,-3.2734,-3.2768,-3.2736,-3.2739,-3.2733,-3.2731,-3.2733,-3.2774,-3.2775,-3.2776,-3.2776,0,-3.2715,-3.2709,-3.2719,-3.2729,-3.2737,-3.2744,-3.2749,-3.2757,-3.274,-3.2751,-3.2765,-3.2772,-3.2787,-3.2799,-3.2808,-3.2807,-3.2789,-3.2787,-3.2793,-3.2797,-3.28,-3.2798,-3.2698,-3.2784,-3.2783,-3.2783,-3.2782,-3.2782,-3.2773,-3.2789,-3.2789,-3.2802,-3.2804,-3.2809,-3.2823,-3.2817,-3.2829,-3.2839,-3.2829,-3.2846,-3.2848,-3.2857,-3.2859,-3.2872,-3.2858,-3.2868,-3.287,-3.2873,-3.2876,-3.28,-3.2874,-3.2874,-3.2874,-3.2873,-3.2873,0,-3.2849,-3.2847,-3.286,-3.2867,-3.2877,-3.286,-3.2864,-3.2874,-3.2889,-3.2892,-3.2902,-3.2918,-3.2931,-3.2925,-3.2936,-3.2948,-3.294,-3.2951,-3.2949,-3.2949,-3.2889,-3.2881,-3.2957,-3.2957,-3.2957,-3.2957,-3.2957,-3.2957,-3.2889,-3.2914,-3.2908,-3.2934,-3.2933,-3.295,-3.2954,-3.2958,-3.296,-3.298,-3.299,-3.2987,-3.2986,-3.2997,-3.3007,-3.3005,-3.301,-3.3024,-3.3019,-3.2962,-3.2953,-3.2945,-3.2938,-3.3025,-3.3025,-3.3078,-3.3078,-3.3079]},{"header":{"parameterUnit":"m.s-1","parameterCategory":1,"la1":30.2991,"la2":30.254,"lo1":-89.0895,"lo2":-89.0444,"dy":0.0017,"dx":0.0017,"nx":28,"ny":28,"refTime":"2024-04-15T09:00:00:Z","depth":0,"parameterNumber":3,"parameterNumberName":"V-component_of_WINDS"},"data":[0,0,0,0,0,0,0,0,0,0,0,0,0,0,0,0,0,0,0,0,0,0,0,0,0,0,0,0,0,0,0,0,0,0,0,0,0,0,0,0,0,0,0,0,0,0,0,0,0,0,0,0,0,0,0,0,0,0,4.0254,4.0254,0,4.0305,4.0306,4.0306,4.0351,4.0352,4.0352,4.0353,4.0404,4.0405,4.0406,0,0,0,0,0,0,0,0,0,0,0,0,0,4.0194,4.0195,4.0254,4.0254,4.0255,4.0305,4.0306,4.0307,4.0351,4.0352,4.0352,4.0353,4.0404,4.0405,4.0406,0,0,0,0,0,0,0,0,0,0,0,0,0,4.023,4.0195,4.0254,4.0283,4.0286,4.0305,4.0306,4.0307,4.0351,4.0352,4.0353,4.0353,4.0403,4.0405,4.0406,4.0399,0,0,4.041,4.0411,0,0,0,0,0,0,0,0,4.0228,4.0232,4.0278,4.0281,4.0285,4.0323,4.0304,4.0338,4.0351,4.0326,4.0353,4.0354,4.0376,4.038,4.0388,4.0401,4.0404,4.041,4.0411,4.0412,4.0412,0,0,0,0,0,0,0,4.0225,4.023,4.0274,4.0279,4.0283,4.0294,4.03,4.031,4.0346,4.0329,4.0332,4.0338,4.0378,4.0386,4.0389,4.0404,4.041,4.0411,4.0412,4.0413,4.0418,4.0417,0,0,0,0,0,0,4.0218,4.0228,4.0272,4.0276,4.0258,4.0295,4.0301,4.031,4.0346,4.0353,4.0337,4.0339,4.0384,4.0388,4.0391,4.0387,4.0412,4.0413,4.0414,4.0418,4.0417,4.0417,0,0,0,0,0,0,4.0217,4.0222,4.027,4.0253,4.026,4.0295,4.0304,4.031,4.0319,4.0353,4.0359,4.0339,4.0385,4.0389,4.0398,4.039,4.0413,4.0415,4.0419,4.0418,4.0417,4.0378,0,0,0,0,0,0,4.0215,4.0221,4.0218,4.0252,4.0261,4.0275,4.0303,4.0311,4.0321,4.0325,4.0356,4.0362,4.0386,4.0395,4.0399,4.0392,4.0416,4.042,4.0419,4.0417,4.038,4.0375,4.0372,0,0,0,0,0,4.0213,4.0204,4.0218,4.0223,4.0258,4.0275,4.0279,4.0307,4.032,4.0318,4.034,4.0361,4.039,4.0396,4.04,4.0393,4.042,4.0419,4.0417,4.0382,4.0376,4.0372,0,0,0,0,0,0,4.0168,4.0209,4.0225,4.0227,4.0247,4.0282,4.028,4.03,4.0316,4.0319,4.0352,4.0359,4.0364,4.0379,4.0385,4.039,4.0408,4.0407,4.0379,4.0375,4.0371,4.0367,4.0417,0,0,0,0,0,4.0158,4.0168,4.0204,4.0203,4.0212,4.0245,4.0253,4.0273,4.0294,4.0303,4.0326,4.0346,4.036,4.0368,4.0382,4.0383,4.0391,4.038,4.0376,4.0373,4.0372,4.0375,4.0371,4.0412,4.0412,4.0412,0,0,4.0138,4.0162,4.0166,4.0195,4.0212,4.0223,4.0251,4.026,4.0268,4.0304,4.0314,4.0331,4.0356,4.0361,4.0364,4.0374,4.0363,4.0371,4.0368,4.0369,4.0373,4.0369,4.0366,4.0411,4.0411,4.0411,0,0,4.0108,4.0126,4.0128,4.0146,4.0173,4.0195,4.0196,4.0228,4.0242,4.0252,4.028,4.029,4.0313,4.033,4.0342,4.032,4.034,4.0324,4.0303,4.0305,4.0302,4.03,4.0293,4.029,4.0323,4.0323,4.0323,0,4.0079,4.0096,4.0127,4.0135,4.0147,4.0181,4.0184,4.02,4.023,4.0238,4.0249,4.028,4.0299,4.0309,4.0304,4.0312,4.0314,4.032,4.03,4.0298,4.0296,4.029,4.0288,4.0321,4.0321,4.0321,4.0321,0,4.0061,4.0072,4.007,4.01,4.0112,4.0117,4.015,4.0158,4.0178,4.0199,4.021,4.0234,4.0255,4.0259,4.0277,4.0272,4.0278,4.0294,4.0313,4.0289,4.0285,4.0283,4.0318,4.0318,4.0319,4.032,0,0,4.0001,4.005,4.0049,4.0064,4.0097,4.0107,4.0114,4.0136,4.0143,4.0163,4.0171,4.0191,4.0207,4.0221,4.0241,4.0244,4.0227,4.026,4.0261,4.0254,4.0225,4.0213,4.021,4.0241,4.0241,4.0241,4.0224,0,3.9977,3.9993,4.0022,4.0029,4.0041,4.0075,4.0082,4.0103,4.0123,4.0137,4.0159,4.0173,4.0192,4.0201,4.0205,4.0228,4.0222,4.023,4.0249,4.025,4.0243,4.0208,4.0195,4.0177,4.0222,4.0222,4.0221,0,3.995,3.997,3.9978,4.0013,4.0019,4.0025,4.0048,4.006,4.0086,4.0101,4.0117,4.014,4.0151,4.0169,4.0185,4.0189,4.0199,4.0212,4.0212,4.0216,4.0234,4.0211,4.0172,4.017,4.0219,4.0219,4.0219,0,3.9908,3.9936,3.9946,3.9957,3.9998,4.0001,4.0018,4.0045,4.0057,4.0077,4.0086,4.0107,4.0118,4.0134,4.0163,4.0173,4.0177,4.0196,4.019,4.0189,4.0189,4.0189,4.0153,4.0194,4.0194,4.0194,4.0194,0,3.9878,3.9882,3.9928,3.9933,3.9939,3.9973,3.9978,3.9999,4.0022,4.0033,4.0063,4.0073,4.011,4.0124,4.0147,4.0158,4.0163,4.0175,4.0181,4.0173,4.0172,4.018,4.0182,4.0194,4.0194,4.0194,4.0194,0,3.9831,3.9862,3.9875,3.9913,3.9923,3.9926,3.9958,3.9966,3.9989,4.0002,4.0007,4.0043,4.0061,4.0092,4.0119,4.0134,4.0141,4.0151,4.0133,4.0136,4.0129,4.013,4.0098,4.0096,4.0137,4.0137,4.0136,0,3.981,3.9814,3.9854,3.9864,3.988,3.9895,3.9908,3.9942,3.9954,3.9985,3.9989,4.001,4.0029,4.0057,4.0085,4.0107,4.0118,4.0105,4.0121,4.0113,4.0119,4.0119,4.012,4.0101,4.0101,4.01,4.01,0,3.977,3.9786,3.9803,3.9827,3.9842,3.9862,3.9883,3.9889,3.9928,3.9941,3.996,3.9975,4.0004,4.0025,4.005,4.0068,4.0091,4.0095,4.0095,4.0086,4.0076,4.0083,4.0124,4.0095,4.0096,4.0096,4.0096,4.0096,3.9737,3.9743,3.9772,3.9791,3.9811,3.9831,3.9841,3.9866,3.9883,3.9909,3.9929,3.9947,3.9975,4.0012,4.0029,4.0045,4.0055,4.0054,4.0055,4.0054,4.0052,4.0073,4.005,4.005,4.005,4.005,4.005,0,3.9699,3.972,3.9738,3.9768,3.9783,3.9804,3.9829,3.9841,3.9857,3.9882,3.99,3.9924,3.9945,3.9976,3.9999,4.0006,4.0017,4.0011,4.0011,4.0016,4.0041,4.0039,4.0002,4.0002,4.0002,4.0002,4.0002,4.0002,3.9682,3.9694,3.9713,3.9736,3.9758,3.9777,3.979,3.9809,3.9829,3.9854,3.9872,3.9893,3.992,3.9946,3.9967,3.9976,3.9983,3.9975,3.9986,4.0009,4.0014,4.0018,4.0016,3.9976,3.9976,3.996,3.996,3.996]}]]